{"data":{"norad_id":65205,"intl_designator":"2025-176H","name":"STARLINK-34796","alt_names":[],"object_type":"PAYLOAD","status":"ACTIVE","operator":null,"country":"US","launch_date":"2025-08-14","launch_site_code":"AFETR","launch_vehicle":null,"mission":null,"orbit_class":"UNKNOWN","rcs_meters":null,"size_class":null,"mass_kg":null,"dimensions":null,"purposes":["comms"],"wikipedia_slug":null,"has_3d_model":false,"image_url":null,"decayed_at":null,"tle_current":{"epoch":"2026-09-20T21:20:40.952832Z","epoch_age_seconds":87266,"freshness":"FRESH","line1":"1 65205U 25176H   26263.88936288  .00012592  00000+0  38326-3 0  9993","line2":"2 65205  53.1613 321.9868 0001241  83.8060 276.3084 15.34394534 63065","mean_motion":15.34394534,"eccentricity":0.0001241,"inclination_deg":53.1613,"raan_deg":321.9868,"arg_perigee_deg":83.806,"mean_anomaly_deg":276.3084,"bstar":0.00038326,"rev_number":6306,"period_min":93.848092396815,"perigee_km":461.87053606928,"apogee_km":463.5684366492,"semimajor_km":6840.8564863592,"source":"CELESTRAK","updated_at":"2026-09-21T09:00:35.534593Z"}}}